#timestamp,LO_Frequency,Hit,StdDev 
1617931335.4,286047028.8,P
1617931355.2,286047029.4,P
1617931375.0,286047029.2,P
1617931376.0,286047029.2,Y
1617931395.8,286047000.5,P
1617931415.6,286047000.4,N
1617931435.5,286046998.6,N
1617931455.3,286046998.2,N
1617931475.1,286046998.5,N
1617931495.9,286047000.9,N
1617931515.7,286047002.7,N
1617931535.6,286047003.6,N
1617931555.4,286047003.4,N
1617931575.2,286047003.8,N
1617931595.1,286047003.0,N
1617931596.0,286047003.0,N
1617931645.8,286047003.5,E
1617931655.8,286047002.5,N
1617931675.6,286046999.9,P
1617931695.4,286046999.9,N
1617931715.3,286047000.4,N
1617931735.1,286047002.7,N
1617931755.8,286047001.4,N
1617931775.7,286047004.0,Y
1617931795.5,286047001.5,P
1617931815.4,286047001.4,P
1617931835.2,286047001.4,P
1617931855.0,286047004.0,Y
1617931855.9,286047004.0,P
1617931875.8,286047004.4,P
1617931895.6,286047004.0,N
1617931915.4,286047003.0,N
1617931935.3,286047003.4,Y
1617931955.1,286047000.7,P
1617931975.9,286046998.2,N
1617931995.7,286046998.3,N
1617932015.5,286046998.2,N
1617932035.4,286047001.0,N
1617932055.2,286047000.9,N
1617932075.0,286047002.3,N
1617932076.0,286047002.3,N
1617932095.8,286047004.4,N
1617932115.6,286047002.1,N
1617932135.5,286047001.4,N
1617932155.3,286047001.4,N
1617932175.1,286047003.6,N
1617932195.9,286047003.4,N
1617932215.7,286047002.9,N
1617932235.6,286047003.6,N
1617932255.4,286047003.6,N
1617932275.2,286047001.4,N
1617932295.1,286047001.3,N
1617932296.0,286047001.3,N
1617932315.8,286047003.6,N
1617932335.7,286047005.8,Y
1617932355.5,286047003.5,P
1617932375.3,286047001.3,N
1617932395.2,286047004.3,P
1617932415.0,286047003.4,N
1617932415.9,286047003.4,N
1617932435.7,286047005.1,Y
1617932455.6,286047001.8,P
1617932475.4,286047000.2,N
1617932495.3,286047001.6,N
1617932515.1,286047002.0,N
1617932535.8,286047001.5,N
1617932555.7,286047001.5,N
1617932575.5,286047002.7,Y
1617932595.4,286047000.8,P
1617932615.2,286047004.3,P
1617932635.0,286047003.1,N
1617932635.9,286047003.1,N
1617932655.8,286047001.6,N
1617932675.6,286047002.6,N
1617932695.4,286047002.4,N
1617932715.3,286047002.0,N
1617932735.1,286047004.1,Y
1617932755.9,286047002.7,P
1617932775.7,286047002.7,P
1617932795.5,286047002.1,P
1617932815.4,286047002.6,Y
1617932835.2,286046998.3,P
1617932855.1,286047000.2,N
1617932856.0,286047000.2,N
1617932875.8,286047000.1,N
1617932895.6,286047000.4,N
1617932915.5,286046999.8,N
1617932935.3,286047002.6,N
1617932955.2,286047000.3,N
1617932975.9,286047000.5,N
1617932995.7,286046999.8,N
1617933015.6,286047002.1,N
1617933035.4,286047001.6,N
1617933055.2,286047002.2,N
1617933075.1,286047001.8,N
1617933076.0,286047001.8,N
1617933095.8,286047003.2,N
1617933115.7,286047003.1,N
1617933135.5,286047001.5,N
1617933155.3,286047002.2,N
1617933175.2,286047001.6,N
1617933195.9,286047003.8,Y
1617933215.7,286047002.7,P
1617933235.6,286047002.8,P
1617933255.4,286047002.0,N
1617933275.3,286047002.4,Y
1617933295.1,286046998.8,P
1617933296.0,286046998.8,N
1617933315.8,286047000.8,N
1617933335.7,286047002.4,N
1617933355.5,286047002.4,N
1617933375.3,286047004.2,N
1617933395.2,286047001.5,N
1617933415.0,286047002.1,N
1617933415.9,286047002.1,N
1617933435.8,286047003.1,N
1617933455.6,286047001.3,N
1617933475.4,286047002.1,N
1617933495.3,286047001.6,N
1617933515.1,286047003.2,N
1617933535.8,286047005.6,Y
1617933555.7,286047004.4,P
1617933575.5,286047004.3,P
1617933595.4,286047002.1,N
